TimeCDT,TemperatureF,Dew PointF,Humidity,Sea Level PressureIn,VisibilityMPH,Wind Direction,Wind SpeedMPH,Gust SpeedMPH,PrecipitationIn,Events,Conditions,WindDirDegrees,DateUTC
12:02 AM,73.4,68.0,83,30.06,10.0,SE,10.4,-,N/A,,Scattered Clouds,130,2013-05-10 05:02:00
12:48 AM,73.4,68.0,83,30.03,10.0,SSE,12.7,-,N/A,,Mostly Cloudy,150,2013-05-10 05:48:00
12:53 AM,73.0,68.0,84,30.01,10.0,SE,11.5,-,N/A,,Mostly Cloudy,140,2013-05-10 05:53:00
1:51 AM,73.4,68.0,83,30.00,10.0,SSE,12.7,-,N/A,,Scattered Clouds,150,2013-05-10 06:51:00
1:53 AM,73.0,68.0,84,29.98,10.0,SSE,13.8,-,N/A,,Mostly Cloudy,150,2013-05-10 06:53:00
2:07 AM,73.4,68.0,83,29.98,10.0,SE,15.0,-,N/A,,Scattered Clouds,140,2013-05-10 07:07:00
2:53 AM,73.0,68.0,84,29.95,10.0,SSE,13.8,-,N/A,,Partly Cloudy,150,2013-05-10 07:53:00
3:25 AM,73.4,68.0,83,29.98,10.0,SSE,10.4,-,N/A,,Mostly Cloudy,150,2013-05-10 08:25:00
3:53 AM,73.9,69.1,85,29.97,10.0,SSE,10.4,-,N/A,,Overcast,150,2013-05-10 08:53:00
4:24 AM,73.4,69.8,88,29.98,10.0,SSE,11.5,-,N/A,,Overcast,150,2013-05-10 09:24:00
4:45 AM,73.4,69.8,88,29.97,10.0,SE,12.7,-,N/A,,Overcast,140,2013-05-10 09:45:00
4:53 AM,73.9,69.1,85,29.94,10.0,SE,10.4,-,N/A,,Mostly Cloudy,140,2013-05-10 09:53:00
5:05 AM,73.4,69.8,88,29.94,10.0,SE,15.0,-,N/A,,Mostly Cloudy,140,2013-05-10 10:05:00
5:42 AM,73.4,69.8,88,29.93,10.0,SE,16.1,-,N/A,,Mostly Cloudy,140,2013-05-10 10:42:00
5:53 AM,73.0,69.1,87,29.93,10.0,SSE,15.0,-,N/A,,Mostly Cloudy,150,2013-05-10 10:53:00
6:40 AM,73.4,69.8,88,29.92,9.0,SE,18.4,26.5,0.00,Rain,Light Rain,140,2013-05-10 11:40:00
6:53 AM,73.0,69.1,87,29.94,10.0,SSE,19.6,26.5,0.00,Rain,Light Rain,160,2013-05-10 11:53:00
6:59 AM,73.4,69.8,88,29.97,7.0,SSE,21.9,25.3,0.00,Rain,Light Rain,160,2013-05-10 11:59:00
7:06 AM,73.4,69.8,88,30.01,3.0,South,17.3,25.3,0.00,Rain,Light Rain,190,2013-05-10 12:06:00
7:11 AM,71.6,66.2,83,30.07,2.5,WNW,39.1,46.0,0.04,Rain,Light Rain,290,2013-05-10 12:11:00
7:13 AM,69.8,64.4,83,30.08,1.0,WNW,41.4,52.9,0.18,Rain,Heavy Rain,300,2013-05-10 12:13:00
7:18 AM,66.2,64.4,94,30.08,0.2,NNW,31.1,52.9,0.49,Fog-Rain,Heavy Rain,340,2013-05-10 12:18:00
7:20 AM,66.2,64.4,94,30.08,0.2,NNW,26.5,52.9,0.56,Fog-Rain,Heavy Rain,330,2013-05-10 12:20:00
7:26 AM,66.2,64.4,94,30.09,0.8,NNW,26.5,39.1,0.69,Rain,Heavy Rain,330,2013-05-10 12:26:00
7:33 AM,66.2,64.4,94,30.08,1.2,NW,21.9,33.4,0.78,Rain,Heavy Rain,320,2013-05-10 12:33:00
7:49 AM,66.2,64.4,94,30.09,2.0,North,18.4,-,0.93,Rain,Heavy Rain,350,2013-05-10 12:49:00
7:53 AM,66.9,64.9,93,30.07,2.5,North,18.4,-,0.95,Rain,Heavy Rain,350,2013-05-10 12:53:00
8:53 AM,66.9,64.0,90,30.04,5.0,ENE,17.3,-,0.30,Rain,Rain,60,2013-05-10 13:53:00
9:17 AM,66.2,64.4,94,30.05,6.0,East,17.3,27.6,0.07,Rain,Rain,80,2013-05-10 14:17:00
9:53 AM,66.9,63.0,87,30.05,8.0,ESE,13.8,26.5,0.11,Rain,Light Rain,110,2013-05-10 14:53:00
10:32 AM,68.0,64.4,88,30.09,10.0,ENE,13.8,-,0.00,,Mostly Cloudy,70,2013-05-10 15:32:00
10:53 AM,68.0,64.0,87,30.06,10.0,East,12.7,-,0.00,Rain,Light Rain,100,2013-05-10 15:53:00
11:53 AM,69.8,64.4,83,30.06,10.0,SE,8.1,-,N/A,,Overcast,130,2013-05-10 16:53:00
12:53 PM,71.1,64.9,81,30.01,10.0,SSE,13.8,-,N/A,,Clear,160,2013-05-10 17:53:00
1:53 PM,69.1,64.0,84,30.02,10.0,South,15.0,-,N/A,,Mostly Cloudy,190,2013-05-10 18:53:00
2:53 PM,68.0,64.0,87,29.98,10.0,South,11.5,-,0.00,,Mostly Cloudy,180,2013-05-10 19:53:00
3:53 PM,68.0,64.9,90,29.98,4.0,SSW,6.9,-,0.04,Rain,Light Rain,210,2013-05-10 20:53:00
4:53 PM,68.0,64.9,90,29.99,4.0,West,8.1,-,0.09,Rain,Light Rain,280,2013-05-10 21:53:00
5:53 PM,66.9,64.0,90,30.05,1.8,West,6.9,-,0.29,Rain,Rain,280,2013-05-10 22:53:00
6:15 PM,66.2,62.6,88,30.02,3.0,ESE,5.8,-,0.09,Rain,Rain,110,2013-05-10 23:15:00
6:53 PM,66.9,64.0,90,29.91,4.0,East,16.1,23.0,0.20,Rain,Light Rain,100,2013-05-10 23:53:00
7:53 PM,66.9,63.0,87,29.93,9.0,SSE,6.9,-,0.01,,Clear,160,2013-05-11 00:53:00
8:53 PM,66.0,62.1,87,29.95,10.0,South,11.5,-,N/A,,Clear,180,2013-05-11 01:53:00
9:53 PM,66.0,63.0,90,29.97,10.0,South,8.1,-,N/A,,Clear,190,2013-05-11 02:53:00
10:53 PM,66.9,63.0,87,29.98,10.0,SW,5.8,-,N/A,,Clear,230,2013-05-11 03:53:00
11:53 PM,68.0,64.0,87,29.99,10.0,West,5.8,-,N/A,,Clear,270,2013-05-11 04:53:00